TimeCST,TemperatureF,Dew PointF,Humidity,Sea Level PressureIn,VisibilityMPH,Wind Direction,Wind SpeedMPH,Gust SpeedMPH,PrecipitationIn,Events,Conditions,WindDirDegrees,DateUTC
12:15 AM,12.2,6.8,79,30.47,10.0,NNE,10.4,-,N/A,,Partly Cloudy,20,2013-01-24 06:15:00
12:35 AM,12.2,5.0,73,30.47,10.0,NE,12.7,-,N/A,,Scattered Clouds,40,2013-01-24 06:35:00
12:55 AM,10.4,5.0,79,30.46,10.0,NE,8.1,-,N/A,,Partly Cloudy,40,2013-01-24 06:55:00
1:15 AM,10.4,5.0,79,30.47,10.0,NE,10.4,-,N/A,,Partly Cloudy,40,2013-01-24 07:15:00
1:35 AM,10.4,5.0,79,30.47,10.0,NE,8.1,-,N/A,,Partly Cloudy,50,2013-01-24 07:35:00
1:55 AM,8.6,3.2,79,30.46,10.0,NE,12.7,-,N/A,,Clear,50,2013-01-24 07:55:00
2:15 AM,8.6,1.4,73,30.46,10.0,NE,11.5,-,N/A,,Clear,50,2013-01-24 08:15:00
2:35 AM,8.6,1.4,73,30.47,10.0,NE,11.5,-,N/A,,Clear,50,2013-01-24 08:35:00
2:55 AM,8.6,1.4,73,30.46,10.0,ENE,10.4,-,N/A,,Clear,60,2013-01-24 08:55:00
3:15 AM,8.6,1.4,73,30.47,10.0,NE,10.4,-,N/A,,Clear,50,2013-01-24 09:15:00
3:55 AM,6.8,1.4,79,30.44,10.0,ENE,13.8,-,N/A,,Scattered Clouds,70,2013-01-24 09:55:00
4:15 AM,6.8,-0.4,72,30.43,10.0,ENE,12.7,-,N/A,,Clear,70,2013-01-24 10:15:00
4:35 AM,5.0,-0.4,78,30.44,10.0,ENE,10.4,-,N/A,,Clear,70,2013-01-24 10:35:00
4:55 AM,5.0,-2.2,72,30.44,10.0,ENE,12.7,-,N/A,,Clear,60,2013-01-24 10:55:00
5:15 AM,5.0,-2.2,72,30.43,10.0,ENE,12.7,-,N/A,,Clear,70,2013-01-24 11:15:00
5:35 AM,5.0,-2.2,72,30.44,10.0,ENE,10.4,-,N/A,,Clear,70,2013-01-24 11:35:00
5:55 AM,3.2,-2.2,78,30.45,10.0,ENE,10.4,-,N/A,,Clear,70,2013-01-24 11:55:00
6:15 AM,3.2,-2.2,78,30.44,10.0,East,11.5,-,N/A,,Clear,80,2013-01-24 12:15:00
6:35 AM,3.2,-2.2,78,30.44,10.0,East,8.1,-,N/A,,Clear,100,2013-01-24 12:35:00
6:55 AM,3.2,-4.0,72,30.41,10.0,East,10.4,-,N/A,,Clear,100,2013-01-24 12:55:00
7:15 AM,3.2,-4.0,72,30.42,10.0,ESE,11.5,-,N/A,,Clear,110,2013-01-24 13:15:00
7:35 AM,1.4,-4.0,78,30.43,10.0,East,10.4,-,N/A,,Clear,100,2013-01-24 13:35:00
7:55 AM,1.4,-4.0,78,30.43,10.0,ESE,11.5,-,N/A,,Clear,120,2013-01-24 13:55:00
8:15 AM,3.2,-4.0,72,30.43,10.0,East,9.2,-,N/A,,Clear,100,2013-01-24 14:15:00
8:35 AM,3.2,-4.0,72,30.43,10.0,ESE,10.4,-,N/A,,Clear,110,2013-01-24 14:35:00
9:15 AM,5.0,-2.2,72,30.42,10.0,ESE,9.2,-,N/A,,Clear,120,2013-01-24 15:15:00
9:55 AM,5.0,-2.2,72,30.41,10.0,SE,9.2,-,N/A,,Clear,130,2013-01-24 15:55:00
10:15 AM,6.8,-2.2,67,30.42,10.0,ESE,12.7,16.1,N/A,,Clear,120,2013-01-24 16:15:00
10:35 AM,6.8,-2.2,67,30.42,10.0,SE,9.2,-,N/A,,Clear,140,2013-01-24 16:35:00
10:55 AM,6.8,-2.2,67,30.42,10.0,ESE,10.4,-,N/A,,Clear,120,2013-01-24 16:55:00
11:15 AM,6.8,-0.4,72,30.40,10.0,SE,9.2,-,N/A,,Clear,140,2013-01-24 17:15:00
11:35 AM,8.6,-0.4,67,30.38,10.0,SE,12.7,-,N/A,,Clear,130,2013-01-24 17:35:00
11:55 AM,8.6,-0.4,67,30.36,10.0,SE,11.5,18.4,N/A,,Clear,130,2013-01-24 17:55:00
12:15 PM,10.4,-0.4,62,30.34,10.0,SE,8.1,-,N/A,,Clear,140,2013-01-24 18:15:00
12:35 PM,10.4,-0.4,62,30.33,10.0,SSE,10.4,-,N/A,,Clear,150,2013-01-24 18:35:00
12:55 PM,12.2,-0.4,57,30.32,10.0,SSE,9.2,-,N/A,,Clear,150,2013-01-24 18:55:00
1:15 PM,14.0,-0.4,53,30.29,10.0,SSE,9.2,-,N/A,,Mostly Cloudy,160,2013-01-24 19:15:00
1:35 PM,14.0,-0.4,53,30.27,10.0,SSE,10.4,16.1,N/A,,Mostly Cloudy,150,2013-01-24 19:35:00
1:55 PM,14.0,1.4,57,30.26,10.0,SSE,11.5,-,N/A,,Scattered Clouds,160,2013-01-24 19:55:00
2:15 PM,14.0,-0.4,53,30.24,10.0,SSE,11.5,-,N/A,,Partly Cloudy,150,2013-01-24 20:15:00
2:35 PM,14.0,1.4,57,30.22,10.0,South,11.5,16.1,N/A,,Clear,170,2013-01-24 20:35:00
2:55 PM,15.8,1.4,53,30.20,10.0,SSE,13.8,-,N/A,,Partly Cloudy,150,2013-01-24 20:55:00
3:15 PM,15.8,1.4,53,30.20,10.0,SSE,12.7,-,N/A,,Scattered Clouds,160,2013-01-24 21:15:00
3:35 PM,15.8,1.4,53,30.20,10.0,South,11.5,-,N/A,,Overcast,170,2013-01-24 21:35:00
3:55 PM,15.8,1.4,53,30.18,10.0,SSE,11.5,-,N/A,,Overcast,160,2013-01-24 21:55:00
4:15 PM,17.6,1.4,49,30.18,10.0,SSE,10.4,-,N/A,,Overcast,160,2013-01-24 22:15:00
4:35 PM,17.6,3.2,53,30.15,10.0,SSE,12.7,-,N/A,,Overcast,150,2013-01-24 22:35:00
4:55 PM,17.6,3.2,53,30.13,10.0,SSE,12.7,-,N/A,,Overcast,150,2013-01-24 22:55:00
5:15 PM,17.6,3.2,53,30.13,10.0,SSE,11.5,17.3,N/A,,Overcast,150,2013-01-24 23:15:00
5:35 PM,17.6,3.2,53,30.11,10.0,SSE,12.7,-,N/A,,Overcast,160,2013-01-24 23:35:00
5:55 PM,19.4,3.2,49,30.13,10.0,South,13.8,17.3,N/A,,Overcast,170,2013-01-24 23:55:00
6:15 PM,19.4,3.2,49,30.13,10.0,South,10.4,-,N/A,,Overcast,170,2013-01-25 00:15:00
6:35 PM,19.4,3.2,49,30.13,10.0,South,9.2,-,N/A,,Overcast,170,2013-01-25 00:35:00
7:15 PM,19.4,5.0,54,30.13,10.0,South,12.7,-,N/A,,Overcast,180,2013-01-25 01:15:00
7:35 PM,19.4,5.0,54,30.13,10.0,South,9.2,16.1,N/A,,Overcast,180,2013-01-25 01:35:00
7:55 PM,19.4,5.0,54,30.13,10.0,South,9.2,-,N/A,,Overcast,180,2013-01-25 01:55:00
8:15 PM,19.4,5.0,54,30.13,10.0,South,9.2,-,N/A,,Overcast,180,2013-01-25 02:15:00
8:35 PM,19.4,5.0,54,30.11,10.0,South,10.4,-,N/A,,Overcast,180,2013-01-25 02:35:00
8:55 PM,19.4,5.0,54,30.12,10.0,Calm,Calm,-,N/A,,Overcast,0,2013-01-25 02:55:00
9:15 PM,19.4,6.8,58,30.12,10.0,Calm,Calm,-,N/A,,Overcast,0,2013-01-25 03:15:00
9:35 PM,21.2,6.8,54,30.14,10.0,Calm,Calm,-,N/A,,Overcast,0,2013-01-25 03:35:00
9:55 PM,19.4,6.8,58,30.14,10.0,Calm,Calm,-,N/A,,Mostly Cloudy,0,2013-01-25 03:55:00
10:15 PM,19.4,8.6,63,30.13,10.0,Calm,Calm,-,N/A,,Mostly Cloudy,0,2013-01-25 04:15:00
10:35 PM,19.4,8.6,63,30.13,10.0,Calm,Calm,-,N/A,,Mostly Cloudy,0,2013-01-25 04:35:00
10:55 PM,19.4,8.6,63,30.13,10.0,Calm,Calm,-,N/A,,Partly Cloudy,0,2013-01-25 04:55:00
11:15 PM,19.4,8.6,63,30.13,10.0,Calm,Calm,-,N/A,,Mostly Cloudy,0,2013-01-25 05:15:00
11:35 PM,19.4,10.4,68,30.16,10.0,Calm,Calm,-,N/A,,Mostly Cloudy,0,2013-01-25 05:35:00
11:55 PM,19.4,10.4,68,30.15,10.0,Calm,Calm,-,N/A,,Scattered Clouds,0,2013-01-25 05:55:00